Tracking 29493 objects as of 8-Sep-2024
HD Live streaming from Space Station
objects crossing your sky now

FENGYUN 1C DEB

Track FENGYUN 1C DEB now!
10-day predictions


NORAD ID: 36734
Int'l Code: 1999-025EBG
Perigee: 802.6 km
Apogee: 860.3 km
Inclination: 99.1 °
Period: 101.4 minutes
Semi major axis: 7202 km
RCS: 0.0055 m2 (small)
Launch date: May 10, 1999
Source: People's Republic of China (PRC)
Launch site: Taiyaun Space Center, China (TSC)

Note: This is SATELLITE DEBRIS
Your satellite tracking list
Your tracking list is empty




NASA's NSSDC Master Catalog

Two Line Element Set (TLE):
1 36734U 99025EBG 24252.52565930  .00012548  00000-0  58294-2 0  9998
2 36734  99.0905 279.3018 0040066 100.6721 259.8970 14.20313311761867
Source of the keplerian elements: AFSPC